Theta_e
313 313 316 322 316 312 316 318 316 318 318 318 318 317 317 317 316 315 320 319 320 322 325 332 334 335 334 333 332 331 331 331 331 332 335 335 335 336 336 335 330 325 322 317 318 319 319 319 319
313 319 322 319 312 314 315 313 318 317 318 319 319 319 318 318 320 320 320 319 320 321 324 330 333 334 334 335 337 336 333 334 335 335 335 334 333 334 333 330 327 323 318 316 318 319 318 316 318
318 319 319 309 308 313 315 315 316 317 318 318 318 319 319 319 320 319 318 319 319 319 324 327 331 334 334 339 339 338 338 337 336 335 334 333 333 332 331 327 324 322 319 317 317 318 316 314 312
319 320 316 311 316 315 314 314 314 317 318 318 317 317 318 319 320 318 316 316 318 320 320 326 329 332 333 334 335 336 337 337 334 333 332 334 327 326 326 324 323 321 319 318 316 317 314 312 311
318 317 311 313 315 314 311 315 315 316 317 318 318 317 317 318 319 317 316 316 316 318 320 321 328 330 332 332 333 334 334 334 332 331 334 335 333 329 324 323 322 321 319 317 316 315 313 311 307
318 313 311 314 315 313 312 314 316 315 315 317 317 317 317 318 319 317 316 316 316 316 319 321 322 327 330 331 333 333 334 333 331 331 334 335 334 327 324 322 324 316 316 316 315 313 311 309 304
314 307 310 313 314 314 314 315 315 314 314 316 317 315 316 316 317 317 317 317 317 316 316 318 320 321 327 330 332 333 336 333 330 329 333 333 331 323 324 324 324 315 314 315 314 312 311 306 304
317 309 313 312 313 315 314 315 315 315 315 316 316 313 314 315 315 316 317 317 317 316 316 317 318 320 323 326 329 331 333 333 330 330 332 332 330 329 326 325 325 319 313 313 312 311 310 304 304
315 307 308 312 311 314 315 314 315 315 315 315 315 315 314 315 315 315 317 317 317 317 317 318 319 321 322 325 328 330 331 331 330 330 331 330 329 327 327 327 327 325 320 312 311 311 308 304 304
311 306 308 310 312 314 315 314 315 315 313 314 314 314 314 314 315 315 316 316 316 317 317 318 319 320 322 323 325 328 330 330 330 330 330 330 329 328 328 328 324 325 326 323 318 311 308 303 303
312 310 310 314 314 314 314 314 314 314 313 313 314 314 313 313 314 315 314 314 314 314 314 314 316 320 320 322 324 325 328 330 331 331 330 329 329 328 330 329 331 328 328 327 324 316 310 304 303
315 315 314 315 315 315 314 314 314 314 314 313 313 312 313 313 314 313 313 313 313 313 314 314 315 316 318 320 322 325 326 326 329 330 331 332 330 329 329 328 326 325 327 328 326 324 314 308 303
314 314 314 315 314 313 313 312 312 313 312 312 311 311 312 312 312 312 313 313 313 314 314 314 314 315 316 318 320 323 325 326 327 332 331 332 331 329 328 328 326 324 324 325 326 325 323 315 308
312 312 312 313 313 312 312 311 312 311 311 311 311 311 311 310 311 311 312 313 313 313 313 314 314 315 315 317 321 323 325 326 326 328 329 330 329 328 328 327 326 324 323 324 324 321 321 321 316
312 311 308 310 311 310 311 311 309 312 310 310 309 309 309 309 309 310 310 310 311 311 312 313 314 314 314 317 322 326 328 328 328 329 328 327 326 327 326 326 325 324 323 323 323 323 323 321 319
310 309 310 310 310 311 312 313 312 309 310 308 308 308 308 308 308 308 308 308 309 311 312 314 315 315 314 317 322 327 330 330 329 326 326 326 326 326 326 326 326 325 325 323 321 321 320 320 319
306 310 309 309 310 310 310 311 311 310 309 304 304 304 305 305 305 306 306 307 308 310 313 315 317 317 319 321 325 329 328 326 326 327 325 327 326 327 326 325 324 322 322 323 323 322 319 318 317
310 309 308 309 311 310 311 310 308 305 306 301 301 301 302 303 303 304 306 306 307 309 313 316 319 321 323 326 328 326 325 325 324 323 323 323 323 322 323 323 323 322 322 322 321 320 318 316 315
308 309 310 309 309 311 309 308 306 303 301 300 300 299 300 301 301 302 304 305 307 308 309 311 314 319 322 323 324 322 321 320 318 318 319 320 320 320 321 321 320 319 319 318 318 317 316 315 313
308 309 309 308 309 308 309 309 303 301 300 300 299 299 299 300 301 302 303 305 305 306 306 307 307 308 309 310 311 312 314 316 315 314 314 315 315 315 315 314 314 315 315 314 314 313 312 311 311
308 308 309 311 309 308 307 308 305 300 299 299 299 299 299 300 301 302 303 303 303 304 304 304 305 305 306 306 307 309 310 312 312 312 312 311 310 310 310 310 310 310 310 310 309 309 309 308 308
310 308 310 311 309 311 307 311 308 302 300 299 298 299 299 300 300 300 301 302 302 303 303 303 303 303 303 303 304 305 305 305 304 304 304 304 303 303 302 302 302 303 303 303 303 303 302 302 304
312 308 308 308 307 308 308 308 306 302 301 299 297 298 299 300 300 300 300 301 301 301 302 302 302 302 302 303 302 302 302 301 300 300 300 299 299 299 299 299 298 298 298 298 299 299 299 299 299
306 308 306 304 305 310 309 310 309 305 304 299 298 299 299 299 299 299 299 299 300 300 300 300 300 300 300 299 299 299 299 297 297 295 295 293 292 292 292 291 291 291 291 290 290 291 292 293 295
309 310 313 311 310 313 307 307 308 306 302 301 298 299 299 298 298 298 298 299 299 299 298 298 297 298 296 296 296 295 295 294 293 292 292 291 291 290 290 289 289 289 289 289 288 288 288 288 288
308 310 312 311 309 310 308 312 312 301 299 300 301 300 299 298 298 298 299 299 298 297 297 296 295 295 294 293 293 293 292 292 291 291 291 290 290 290 289 289 288 288 288 288 288 288 288 288 287
308 310 308 307 296 306 309 308 304 299 298 297 298 299 299 298 299 299 299 298 297 297 296 294 294 294 293 292 291 291 291 291 291 290 289 289 289 288 288 288 287 287 286 286 286 286 286 286 286
308 306 311 307 307 306 307 308 307 303 299 296 296 297 299 299 298 299 300 299 298 297 295 293 292 291 291 291 290 290 290 289 289 289 289 289 288 288 287 287 286 286 286 286 286 286 286 286 286
307 309 306 307 304 304 302 305 303 304 300 298 297 299 300 300 300 300 301 299 297 296 294 292 291 290 290 290 290 289 289 289 289 288 288 288 288 287 286 286 286 286 286 286 286 286 286 286 286
306 307 307 310 308 304 305 309 301 302 300 299 299 301 301 301 301 301 300 299 298 296 294 292 290 290 290 289 289 289 289 289 288 288 288 287 287 286 285 285 285 285 285 285 285 285 285 285 285
Wind_Speed
5 4 2 1 4 5 1 1 1 2 2 1 2 2 2 2 3 3 5 0 2 4 14 18 17 14 15 14 14 13 12 11 9 6 5 4 3 3 4 3 3 5 6 5 4 4 3 3 2
4 3 1 2 5 4 4 3 2 2 0 2 3 3 2 1 1 3 4 2 2 4 9 15 16 16 15 14 13 12 12 10 8 7 5 5 5 6 5 5 5 5 5 3 3 3 3 3 2
4 4 2 4 3 3 3 4 2 2 1 2 2 1 2 0 2 3 4 2 2 2 6 12 15 15 14 13 12 12 12 11 9 8 7 7 9 8 7 6 6 6 5 5 5 3 3 4 4
3 1 5 4 2 2 3 3 2 2 1 2 2 1 1 1 0 1 3 4 2 1 4 10 14 15 15 14 13 12 12 11 9 8 7 8 3 4 6 7 9 10 9 7 6 5 4 5 5
3 3 4 4 2 3 3 3 1 2 2 1 1 2 2 3 2 0 2 4 3 0 3 6 13 15 16 16 15 14 14 12 11 9 9 9 9 8 8 9 11 13 13 8 6 6 6 6 6
3 3 4 1 3 4 4 6 1 0 3 3 2 2 2 6 2 3 2 2 3 1 2 5 9 14 16 16 16 15 15 14 12 11 11 12 9 9 8 8 10 13 9 5 5 6 7 6 5
5 4 4 3 2 3 2 8 3 1 3 2 2 3 2 8 4 4 5 5 4 3 2 5 7 11 15 17 17 16 15 15 14 13 14 14 11 7 9 9 9 9 7 6 6 7 6 6 4
3 5 3 2 2 2 3 4 2 4 1 3 2 2 4 13 14 7 5 6 6 4 3 5 7 10 14 17 19 18 17 16 16 15 17 16 15 14 13 10 8 8 8 7 8 8 7 6 5
2 4 1 3 5 2 2 5 1 7 5 2 3 5 10 11 7 8 5 7 8 8 7 9 10 11 13 16 18 20 20 18 18 18 18 18 17 17 17 12 9 8 8 8 9 9 8 7 7
4 3 6 3 3 2 4 1 7 5 7 4 7 8 11 8 10 8 7 8 9 10 11 12 15 15 14 16 17 19 20 21 20 20 19 19 18 17 15 13 11 9 9 10 9 9 9 9 9
2 4 3 2 5 4 4 5 2 2 6 2 5 12 8 6 2 5 7 10 12 13 14 15 15 17 16 16 16 17 18 20 21 21 20 19 19 17 17 15 15 13 13 12 12 10 9 10 11
0 5 5 3 2 3 4 6 5 7 4 11 10 2 3 5 6 4 4 6 8 9 11 10 14 15 17 16 15 15 15 17 19 18 19 19 19 18 18 18 18 17 16 15 14 12 11 12 13
3 3 5 8 10 11 11 9 7 19 13 2 2 2 4 7 7 7 8 8 10 12 12 12 11 14 15 15 13 13 12 13 15 18 21 20 19 19 19 18 18 18 18 17 17 15 14 13 14
1 4 10 11 14 9 5 2 1 7 7 4 2 4 6 6 6 6 6 8 11 12 11 11 12 14 15 14 13 11 9 8 9 11 19 20 19 19 20 20 21 19 18 19 20 19 15 16 16
2 5 7 7 6 5 5 2 6 1 4 7 7 7 7 9 9 9 10 11 12 13 12 7 7 9 14 15 13 12 9 6 5 4 7 11 13 16 16 18 19 17 19 20 21 19 18 18 19
3 3 4 3 1 1 4 7 0 8 13 8 7 5 5 6 9 10 9 10 11 12 12 13 9 3 9 13 11 10 8 7 6 6 9 9 12 14 14 17 17 17 17 19 18 20 21 20 18
5 3 5 8 1 1 2 5 2 18 13 9 7 6 5 5 7 8 9 10 11 12 13 12 9 6 6 8 9 9 9 9 7 8 8 9 8 6 7 9 13 17 17 18 17 18 20 18 18
6 4 4 6 1 3 1 7 5 16 9 11 10 10 10 11 13 11 10 10 11 12 13 13 13 13 11 10 11 8 6 4 2 4 7 9 11 10 9 9 10 12 8 8 13 16 17 18 20
4 4 5 3 3 0 7 7 4 8 12 11 11 13 15 17 17 17 18 17 15 13 12 13 13 15 11 9 8 7 3 1 3 4 5 5 5 7 9 9 9 11 10 13 13 13 12 14 17
2 2 5 5 2 6 4 6 3 6 5 7 11 13 16 18 19 22 25 26 28 28 28 25 22 18 16 12 12 10 8 5 4 4 6 8 9 10 12 12 11 12 12 14 17 18 16 16 17
5 6 4 7 3 1 4 6 4 4 9 10 11 13 14 16 18 21 24 26 28 29 29 28 28 27 26 21 16 12 10 9 6 4 3 4 5 6 8 9 10 12 13 14 16 18 20 20 18
5 8 5 4 4 4 1 5 3 5 4 5 10 14 14 14 17 19 22 24 26 27 24 24 24 24 24 21 19 16 16 14 15 12 11 10 9 9 9 8 8 9 9 10 10 10 12 15 18
6 5 5 2 3 1 2 0 5 5 5 6 10 13 15 16 17 19 19 20 21 19 18 17 17 16 16 15 14 14 15 15 14 12 10 10 10 9 9 10 11 12 12 11 10 8 8 9 10
7 6 6 4 3 1 6 6 4 5 5 6 14 16 15 16 16 17 16 15 15 15 14 12 11 12 12 11 12 12 12 12 10 10 9 10 11 11 12 12 12 12 12 14 16 16 15 14 13
4 5 1 3 1 5 2 1 7 3 2 9 18 25 20 17 16 14 12 11 11 9 9 8 8 9 9 8 9 9 9 8 8 9 10 10 11 13 14 14 14 15 15 15 16 15 14 16 16
6 6 5 6 3 3 2 6 5 3 4 9 24 26 21 20 17 13 9 8 7 6 6 5 5 6 6 7 7 8 8 8 9 10 11 11 12 13 14 15 15 16 17 18 18 19 20 20 20
5 4 4 6 2 2 4 5 2 1 2 10 22 26 24 22 20 15 10 7 4 3 2 1 1 2 3 3 5 5 6 7 8 9 11 12 13 14 15 16 16 17 18 20 22 23 24 25 25
4 7 3 2 2 4 5 5 5 6 8 6 13 25 26 24 22 17 12 7 6 4 3 3 3 3 2 2 2 3 5 7 9 11 12 14 15 16 17 18 18 19 21 23 26 29 31 32 33
3 3 3 4 4 5 2 5 6 7 10 14 20 29 29 27 25 19 14 12 10 8 6 7 6 5 4 2 2 4 6 9 10 12 14 15 16 17 19 20 22 25 29 32 35 36 38 39 41
0 6 6 5 5 2 2 8 4 4 15 23 25 30 28 26 23 19 17 15 13 11 10 10 10 9 6 4 4 6 8 11 13 14 16 17 18 19 21 23 26 29 31 34 38 41 43 45 46
Wind_Direction
340 351 340 349 57 66 354 303 262 327 13 107 96 105 150 159 152 200 348 257 11 168 185 186 188 190 188 187 188 192 198 203 207 213 212 194 181 181 228 241 293 322 338 347 354 23 31 32 36
11 17 33 87 83 66 279 259 230 210 171 114 112 80 53 335 330 350 4 336 13 163 187 194 191 194 199 200 201 205 207 213 222 229 229 226 221 227 246 267 292 317 344 336 327 345 357 345 317
32 15 33 92 104 151 191 237 239 309 122 76 93 105 121 71 1 28 13 11 14 147 190 202 201 201 203 201 205 207 210 215 225 232 237 242 243 241 255 265 282 297 308 307 296 311 320 306 294
2 18 63 80 119 229 211 317 259 331 70 55 78 52 297 255 10 45 53 67 36 184 179 200 206 208 212 215 215 218 221 226 231 232 245 254 210 241 260 281 294 302 301 299 293 296 301 295 286
13 51 55 83 289 274 280 357 347 316 308 321 47 348 319 345 281 187 67 57 56 105 211 206 211 215 218 221 222 222 228 234 239 239 231 252 251 253 271 289 300 296 289 293 289 299 305 302 289
60 65 64 157 277 298 299 358 31 29 337 345 30 355 16 15 31 348 338 1 13 345 228 230 223 223 227 229 228 228 230 236 239 238 229 247 241 246 271 292 299 298 290 293 301 310 310 307 297
100 78 171 174 260 315 286 351 69 6 338 18 6 336 0 34 355 307 297 290 318 335 289 250 240 233 232 234 235 234 231 238 239 236 235 250 247 269 285 291 303 318 313 310 312 310 305 300 288
82 91 119 248 202 253 338 19 76 53 327 337 347 343 335 335 329 310 290 283 274 302 299 276 264 248 239 239 239 240 238 239 239 234 241 245 259 268 279 281 287 318 328 316 317 312 305 298 284
82 62 173 227 155 244 358 16 309 324 277 307 319 345 317 307 289 311 274 288 270 268 282 276 261 257 252 245 244 244 244 243 241 238 242 248 255 266 272 262 264 293 320 322 320 312 305 291 278
76 104 220 212 208 253 323 342 323 332 318 289 326 330 325 300 271 271 267 278 277 271 267 270 271 263 256 254 249 245 244 244 243 243 245 252 260 267 266 273 260 277 301 308 317 305 301 283 272
128 183 214 280 241 288 305 305 200 286 302 324 355 326 351 23 293 264 285 296 296 286 275 261 250 256 259 260 256 253 248 246 245 246 249 254 264 265 259 267 277 286 292 297 306 310 290 274 265
41 246 223 272 244 295 282 298 278 221 261 324 306 282 4 7 24 31 353 327 318 304 304 273 251 245 247 255 256 257 255 256 253 250 254 246 252 263 266 272 279 283 288 292 293 299 297 284 269
179 252 239 262 275 279 276 263 268 274 296 98 98 161 6 5 3 352 346 335 319 305 294 282 259 244 238 242 251 255 263 270 262 244 247 252 256 260 269 271 277 279 287 296 295 290 290 285 276
275 287 288 289 278 270 237 272 246 78 103 91 53 15 2 2 9 355 331 329 322 316 303 288 266 240 230 224 236 251 263 287 292 266 252 257 262 265 266 270 277 280 290 295 303 302 292 290 286
328 334 324 264 272 218 177 247 219 97 32 53 33 20 5 359 352 353 347 343 344 340 338 319 285 251 220 210 218 232 244 268 305 299 274 271 275 276 274 271 271 280 285 288 293 298 298 297 292
31 51 352 315 135 323 161 259 159 43 1 42 37 28 17 8 1 352 356 4 5 2 358 1 0 290 203 195 198 210 222 229 237 253 248 251 257 258 263 267 263 277 284 285 291 286 293 298 298
5 234 210 315 35 140 131 268 293 339 2 76 61 51 44 35 24 23 28 30 27 26 27 20 26 67 122 150 170 180 202 222 231 241 254 256 253 270 275 283 288 288 285 282 288 290 291 302 303
200 213 239 237 307 39 340 268 322 28 65 80 76 73 66 60 56 55 56 54 52 51 54 57 64 76 92 111 124 140 184 180 216 262 268 269 281 281 281 279 286 275 307 295 280 284 289 294 299
145 180 214 247 224 193 243 249 339 63 83 89 93 92 84 78 75 75 74 75 75 73 70 72 80 79 82 93 108 115 96 63 333 313 315 298 290 275 273 278 288 292 297 299 293 290 295 295 299
156 168 250 284 284 184 313 281 76 48 64 108 114 102 99 98 93 89 85 82 77 74 71 70 72 76 76 78 73 71 70 82 58 358 323 333 331 312 304 304 310 303 305 301 301 302 308 307 299
206 196 200 221 346 345 341 286 182 58 103 113 118 120 117 109 100 93 88 83 80 76 72 71 70 68 64 61 67 72 72 82 83 64 32 355 340 318 305 295 286 281 283 291 302 309 310 309 304
218 204 173 177 122 225 59 279 243 172 149 140 148 145 134 121 106 100 95 88 80 76 73 70 67 65 66 68 65 67 69 70 67 60 50 39 28 21 14 7 355 336 322 308 300 295 298 301 299
216 118 150 130 127 56 251 293 256 140 201 197 187 167 150 138 127 116 103 94 87 82 72 67 61 63 68 66 67 67 70 73 76 74 72 70 65 59 50 38 34 27 22 13 360 344 338 329 311
139 79 52 55 92 282 229 184 254 196 195 164 181 182 168 151 140 128 116 105 93 82 72 67 62 65 71 72 76 75 83 87 86 76 59 48 41 38 35 27 23 23 19 14 7 5 3 2 346
104 111 299 341 24 230 5 188 250 176 149 180 180 184 176 164 154 141 127 114 99 86 70 62 62 67 67 64 69 67 62 56 45 42 34 26 20 18 18 15 12 10 8 0 357 355 355 350 345
177 163 156 223 210 261 343 233 260 261 296 236 193 178 174 173 166 160 146 131 113 90 74 60 60 65 67 57 51 48 45 38 31 25 16 9 6 4 4 1 359 356 352 348 346 342 339 337 333
182 179 157 103 39 21 234 282 275 44 46 139 162 174 182 181 179 179 175 164 146 122 106 116 87 88 92 75 63 44 33 25 16 12 5 360 356 352 352 348 347 345 342 339 335 333 330 327 325
151 158 85 10 178 257 279 273 238 222 202 169 168 187 189 189 193 195 196 201 201 199 207 206 195 181 154 105 42 15 7 4 359 353 345 343 341 339 335 334 334 333 332 329 328 326 324 321 319
135 174 68 123 149 175 258 253 210 219 177 182 198 196 194 196 201 205 212 217 211 217 217 216 212 209 208 222 294 331 336 334 335 331 330 328 328 326 325 326 327 328 327 325 323 322 320 318 316
164 194 161 164 216 253 146 257 3 252 179 185 198 200 202 206 210 217 229 227 228 230 230 225 220 218 226 254 286 300 311 318 320 323 325 324 325 324 323 323 322 322 321 320 320 319 319 318 316